SCP
0 0 0 0 0 0 0 0 0 0 0 0 0 0 0 0 0 0 0 0 0 0 0 0 0 0 0 0 0 0 0 0 0 0 0 0 0 0 0 0 0 0 0 0 0 0 0 0 0 0 0 0 0 0
0 0 0 0 0 0 0 0 0 0 0 0 0 0 0 0 0 0 0 0 0 0 0 -0 -0 0 0 0 0 0 0 0 0 0 0 0 0 0 0 0 0 0 0 0 0 0 0 0 0 0 0 0 0 0
0 0 0 0 0 0 0 0 0 0 0 0 0 0 0 0 0 0 0 0 0 0 0 0 0 0 0 0 0 0 0 0 0 0 0 0 0 0 0 0 0 0 0 0 0 0 0 0 0 0 0 0 0 0
0 0 0 0 0 0 0 0 0 0 0 0 0 0 0 0 0 0 0 0 0 0 0 0 0 0 0 0 0 0 0 0 0 0 0 0 0 0 0 0 0 0 0 -0 0 -0 -0 0 0 0 0 0 0 0
0 0 0 0 0 0 0 0 0 0 0 0 0 0 0 0 0 0 0 0 0 0 0 0 0 -0 0 0 0 0 0 0 0 0 0 0 0 0 0 0 0 0 0 0 0 0 0 0 -0 0 0 0 0 0
0 0 0 0 0 0 0 0 0 0 0 0 0 0 0 0 0 0 0 0 0 0 0 0 0 0 0 0 0 0 0 0 0 0 0 0 0 0 0 0 0 0 0 0 0 0 0 0 0 0 0 0 0 0
0 0 0 0 0 0 0 0 0 0 0 0 0 0 0 0 0 0 0 0 0 0 0 0 0 0 0 0 0 0 0 0 0 0 0 0 0 0 0 0 0 -0 -0 0 0 0 0 0 0 0 0 0 0 0
0 0 0 0 0 0 0 0 0 0 0 0 0 0 0 0 0 0 0 0 0 0 0 0 0 0 0 0 0 0 0 0 0 0 0 0 0 0 0 0 0 0 0 0 0 0 0 0 0 0 0 0 0 0
0 0 0 0 0 0 0 0 0 0 0 0 0 0 0 0 0 0 0 0 0 0 0 0 0 0 0 0 0 0 0 0 0 0 0 0 0 0 0 0 0 0 0 0 0 0 0 0 0 0 0 0 0 0
0 0 0 0 0 0 0 0 0 0 0 0 0 0 0 0 0 0 0 0 0 0 0 0 0 0 0 0 0 0 0 0 0 0 0 0 0 0 0 0 0 0 0 0 0 0 0 0 0 0 0 0 0 0
0 0 0 0 0 0 0 0 0 0 0 0 0 0 0 0 0 0 0 0 0 0 0 0 0 0 0 0 0 0 0 0 0 0 0 0 0 0 0 0 0 0 -0 0 0 0 0 0 0 0 0 0 0 0
0 0 0 0 0 0 0 0 0 0 0 0 0 0 0 0 0 0 0 0 0 0 0 0 0 0 0 0 0 0 0 0 0 0 0 0 0 0 0 0 -0 -0 -0 -0 0 0 0 0 0 0 0 0 0 0
0 0 0 -0 -0 0 0 0 0 0 0 0 0 0 0 0 0 0 0 0 0 0 0 -0 0 0 0 0 0 0 0 0 0 0 0 0 0 0 -0 0 -0 -0 0 0 0 0 0 0 0 0 0 0 0 0
-0 0 0 -0 0 0 0 0 0 0 0 0 0 0 0 0 0 0 -0 0 0 0 0 0 0 0 0 0 0 0 0 0 0 0 0 0 0 0 -0 0 -0 -0 0 0 0 0 0 0 0 0 0 0 0 0
-0 -0 -0 -0 -0 0 0 0 0 0 0 0 0 0 0 -0 -0 0 0 0 0 0 0 0 0 0 0 0 0 0 0 0 0 0 -0 -0 -0 -0 -0 0 -0 0 0 0 0 0 0 0 0 0 0 0 0 0
-0 -0 0 -0 0 0 0 0 0 0 0 0 0 0 0 0 0 0 0 0 0 0 0 0 0 0 0 0 0 0 0 0 -0 -0 -0 -0 -0 0 0 0 -0 0 0 0 0 0 0 0 0 0 0 0 -0 0
-0 0 -0 -0 0 0 0 0 0 0 0 0 0 0 0 0 0 0 0 0 0 0 0 0 0 0 0 0 0 -0 0 0 -0 -0 -0 -0 0 0 -0 0 0 0 0 0 -0 -0 0 0 0 0 0 0 0 0
0 -0 -0 -0 0 0 0 0 -0 0 0 0 0 0 0 0 0 0 0 0 0 0 0 0 0 -0 -0 -0 -0 -0 -0 -0 0 0 -0 -0 -0 -0 -0 0 0 -0 -0 -0 0 0 0 0 0 0 0 0 0 0
-0 0 0 0 -0 -0 -0 -0 -0 0 0 -0 -0 -0 0 0 0 0 0 0 0 0 0 -0 -0 -0 -0 0 0 -0 -0 -0 0 0 0 0 0 -0 0 -0 -0 -0 -0 0 -0 -0 0 0 0 0 0 0 0 0
-0 0 0 -0 -0 -0 0 -0 -0 -0 0 -0 -0 -0 -0 -0 0 0 -0 0 0 0 0 0 0 -0 -0 0 0 -0 -0 0 0 0 0 0 -0 0 -0 -0 0 -0 -0 -0 -0 -0 0 0 0 0 0 0 0 0
0 -0 -0 -0 -0 -0 -0 -0 -0 -0 -0 -0 -0 -0 -0 -0 -0 0 0 0 0 0 0 0 0 0 0 -0 -0 -0 0 0 0 0 0 0 0 -0 -0 0 0 -0 -0 0 0 0 0 0 -0 -0 0 0 0 0
-0 -0 -0 -0 0 -0 -0 -0 -0 -0 -0 -0 0 -0 0 0 0 0 0 0 0 0 0 -0 -0 0 -0 -0 -0 -0 -0 -0 -0 0 0 0 -0 -0 -0 -0 -0 -0 0 0 0 0 0 0 -0 0 0 0 0 0
0 -0 0 -0 -0 -0 -0 0 -0 0 -0 -0 0 0 0 0 0 0 0 0 0 -0 -0 -0 0 0 0 0 0 -0 0 -0 0 0 0 -0 -0 0 0 0 0 0 0 0 0 0 0 -0 0 0 -0 0 0 0
0 -0 -0 -0 -0 -0 0 0 0 0 0 0 0 0 0 0 0 0 -0 -0 0 -0 -0 -0 -0 -0 -0 -0 -0 0 0 0 0 0 0 0 0 0 0 0 0 0 0 0 0 0 -0 -0 -0 0 0 -0 0 0
-0 -0 -0 -0 -0 -0 -0 0 0 0 0 0 0 0 0 0 0 0 0 -0 -0 -0 -0 0 -0 -0 0 0 0 0 0 0 -0 -0 -0 -0 0 0 0 0 -0 0 -0 -0 0 0 0 -0 -0 -0 -0 -0 0 0
-0 -0 -0 -0 -0 -0 -0 -0 0 0 0 0 0 0 0 0 0 -0 0 0 -0 -0 0 0 0 0 0 0 0 0 0 0 0 -0 -0 0 0 0 0 0 0 -0 0 0 -0 -0 0 -0 -0 0 -0 -0 0 0
-0 -0 -0 0 0 -0 0 0 0 0 0 0 0 -0 0 -0 0 0 -0 -0 -0 0 0 0 0 0 0 0 -0 -0 0 0 0 0 0 0 0 0 0 -0 -0 -0 -0 -0 -0 0 0 -0 -0 -0 -0 0 0 0
-0 -0 -0 -0 0 0 0 0 0 0 -0 0 0 -0 0 -0 0 0 0 -0 0 0 0 0 0 0 -0 0 -0 0 0 0 0 0 0 0 0 0 0 0 -0 -0 -0 0 -0 -0 -0 -0 -0 -0 0 -0 0 0
0 0 0 0 -0 -0 -0 0 0 -0 0 0 0 -0 -0 -0 0 0 0 0 0 0 0 0 0 -0 -0 -0 0 -0 0 -0 0 0 0 -0 0 -0 0 -0 -0 -0 0 0 0 0 0 -0 -0 -0 -0 -0 -0 0
0 0 -0 -0 -0 -0 -0 0 0 0 -0 -0 -0 -0 0 0 0 0 0 0 0 0 0 -0 -0 -0 -0 -0 0 0 0 -0 0 0 -0 0 -0 -0 -0 -0 -0 0 -0 -0 -0 -0 -0 -0 -0 -0 -0 -0 -0 -0
0 0 0 0 0 -0 0 -0 0 0 -0 0 -0 -0 0 0 0 0 0 0 0 0 -0 -0 0 -0 -0 0 -0 0 -0 -0 -0 -0 -0 -0 0 -0 0 -0 -0 0 0 0 0 0 -0 -0 -0 -0 0 0 -0 0
0 0 0 0 0 0 0 0 -0 0 0 0 0 0 0 0 0 0 0 0 0 0 -0 -0 -0 -0 0 -0 -0 -0 -0 -0 -0 -0 -0 -0 0 0 0 -0 0 0 0 0 -0 0 0 0 -0 -0 0 -0 -0 0
0 0 0 -0 -0 -0 0 0 -0 -0 -0 -0 -0 -0 0 0 0 0 0 0 0 0 0 -0 0 0 0 -0 0 -0 -0 -0 0 0 -0 -0 -0 -0 -0 -0 -0 0 0 0 0 0 0 0 0 0 0 0 -0 -0
Wind_Speed_500mb
60 58 54 47 46 47 44 38 34 34 37 39 42 42 35 20 17 14 7 7 13 16 50 38 28 27 24 19 3 12 8 1 4 2 3 5 4 5 5 10 2 11 5 8 6 6 10 15 8 7 13 14 15 19
60 58 52 47 45 40 49 39 33 37 39 44 41 39 31 17 16 15 9 11 18 23 33 32 32 33 29 22 19 7 9 8 8 3 5 5 5 7 9 6 9 1 7 5 1 8 6 19 25 6 2 18 14 15
60 61 61 57 50 44 40 35 37 38 42 42 39 33 23 16 16 20 19 15 18 24 43 27 32 9 19 28 15 12 1 1 8 7 6 3 5 5 3 7 11 6 8 4 4 9 24 5 7 21 16 18 25 15
62 58 62 53 48 40 35 38 41 43 39 37 33 25 16 16 16 18 19 11 9 13 11 7 1 7 11 19 26 20 17 11 8 8 4 4 3 10 5 7 7 15 10 9 8 12 31 12 0 15 9 9 15 14
68 65 59 52 47 43 41 46 44 43 34 31 25 19 16 13 14 15 17 16 14 11 9 30 37 23 13 23 23 21 21 16 13 9 3 4 9 12 13 7 12 20 7 4 7 12 5 28 24 4 13 10 4 6
71 61 57 50 46 48 50 49 44 35 27 21 19 17 13 10 7 4 4 10 18 16 10 7 20 16 37 25 25 25 20 16 19 7 8 10 34 26 4 6 14 23 37 16 7 6 4 12 12 12 10 7 8 16
67 61 52 47 49 48 46 38 30 27 21 24 21 21 16 14 11 10 8 6 17 8 7 12 13 11 39 29 30 24 22 18 21 21 13 20 34 10 3 10 25 44 44 29 14 14 7 9 10 11 7 5 8 10
65 59 52 53 52 45 36 29 25 24 24 22 20 15 15 11 17 16 13 20 12 6 7 6 9 11 28 13 13 27 23 21 14 16 11 17 16 16 8 19 42 38 28 23 12 7 6 12 10 10 6 4 11 15
59 55 52 51 40 35 31 31 29 30 23 21 15 17 11 15 6 14 6 14 12 11 7 8 6 3 5 10 16 18 19 6 15 15 12 14 7 9 17 32 33 10 11 6 6 7 2 10 8 9 6 8 6 14
60 59 47 38 35 29 27 37 34 29 22 24 23 7 6 11 11 4 6 7 9 11 12 11 21 9 6 9 6 6 12 7 5 12 13 7 9 36 36 37 27 17 14 7 14 12 7 3 10 6 6 6 8 10
50 40 34 32 30 35 44 39 35 37 35 25 13 6 9 14 6 4 8 10 13 8 14 15 30 16 15 4 3 6 5 5 5 7 10 6 6 21 30 35 35 32 10 4 8 14 8 15 11 6 9 10 9 8
35 31 27 33 49 46 41 39 39 36 24 14 13 14 10 8 7 7 6 10 11 8 16 22 19 21 8 4 3 1 4 4 9 11 3 5 4 14 7 10 13 26 17 9 14 19 13 16 8 6 6 4 8 16
31 42 49 44 44 42 41 43 42 30 27 19 5 9 7 8 1 9 10 7 6 4 6 12 7 5 5 4 5 4 7 9 9 3 5 3 12 14 14 10 27 20 16 23 14 14 14 13 2 7 5 5 14 16
55 48 37 42 41 41 41 39 43 32 24 8 11 1 8 9 10 10 11 9 15 12 15 10 7 7 5 5 8 5 8 7 5 5 3 8 20 8 4 7 22 23 22 16 14 17 14 11 3 4 3 11 14 17
43 42 40 38 37 36 36 37 45 36 8 10 10 6 14 27 26 9 3 18 21 10 5 3 2 5 5 6 7 5 5 5 5 5 3 7 9 10 13 22 23 22 16 13 16 13 14 10 3 9 4 9 12 15
41 37 30 34 35 36 38 45 41 10 4 6 10 11 16 11 4 8 14 12 6 9 7 7 6 4 7 6 9 9 4 6 5 3 9 7 0 4 15 26 22 15 16 12 10 18 13 10 6 6 3 6 6 11
37 33 39 39 41 43 47 36 12 6 7 8 11 16 19 16 18 8 8 5 9 7 4 6 2 4 12 6 4 1 4 6 12 10 5 6 11 6 23 22 17 11 12 16 16 16 13 12 4 5 2 8 8 9
29 40 43 45 51 53 36 23 7 9 11 17 15 6 12 10 10 6 9 9 8 4 6 3 6 5 5 6 1 1 37 41 7 7 3 4 2 21 28 17 15 18 16 16 17 17 15 9 4 5 8 14 11 1
44 52 56 54 46 23 10 9 5 7 12 10 10 16 8 8 8 9 7 10 7 10 10 3 5 5 3 3 20 31 36 25 15 17 14 11 13 27 23 17 19 19 17 18 18 19 15 4 5 8 9 6 14 9
44 48 47 39 27 9 7 7 7 9 7 9 14 8 8 6 6 6 12 4 13 9 8 7 9 7 10 20 14 12 11 12 16 11 6 25 30 20 21 19 18 23 23 22 20 17 15 13 19 16 14 13 10 18
32 36 33 21 7 2 1 7 7 5 10 9 12 13 9 3 10 14 20 17 26 15 10 16 13 14 29 21 19 20 16 8 6 4 20 18 20 22 18 19 19 22 18 21 21 16 7 11 18 10 13 18 9 5
30 33 17 9 4 2 1 5 2 3 6 16 15 13 9 8 13 19 21 23 22 24 8 25 17 19 15 9 7 7 7 3 8 12 15 19 21 18 24 18 24 23 20 17 18 11 12 12 8 14 4 11 12 6
27 21 10 4 2 2 2 5 3 5 2 5 8 10 7 5 4 12 11 22 10 4 4 6 7 9 9 6 7 20 16 13 12 18 16 20 21 19 20 18 17 19 23 20 13 10 12 11 6 15 6 6 6 10
15 4 4 6 6 4 9 8 7 4 5 5 4 6 6 8 13 7 5 6 10 13 14 16 18 17 19 21 15 5 3 9 13 18 23 29 30 23 21 16 13 18 16 17 10 13 10 5 9 5 9 16 13 14
2 4 7 6 10 8 7 8 11 8 4 2 2 3 7 10 4 1 2 8 16 15 19 15 19 13 16 7 5 2 7 16 18 21 25 26 30 30 27 22 17 17 24 16 14 10 15 15 9 7 7 8 21 19
5 10 11 11 9 5 2 3 2 4 9 7 7 5 4 3 3 5 4 9 11 13 18 14 13 10 3 4 10 17 14 16 19 20 23 30 30 22 27 21 22 15 15 10 12 13 11 10 10 9 18 13 14 20
5 6 9 7 5 5 5 7 8 7 7 3 8 11 7 3 2 4 3 15 18 18 15 9 9 15 20 25 13 18 21 23 28 25 28 24 20 17 22 22 20 15 12 14 14 10 13 8 6 8 8 6 11 12
7 3 3 14 8 12 4 5 5 4 3 4 4 2 3 4 4 6 9 15 14 13 5 19 19 17 22 24 19 19 21 31 33 30 27 22 20 19 20 20 17 13 14 13 11 10 7 9 9 8 10 11 13 8
6 9 8 10 10 8 8 4 2 5 6 4 4 4 4 7 7 9 13 13 6 3 22 17 16 11 11 14 15 18 18 25 20 20 24 24 19 15 9 12 25 13 8 14 10 11 7 7 10 6 6 7 5 6
9 17 14 14 10 3 4 10 9 4 7 7 6 9 8 8 9 9 6 9 15 19 10 11 14 13 17 12 16 20 19 19 15 15 17 18 16 16 14 13 12 14 11 17 18 16 12 10 9 4 4 7 2 4
7 12 7 12 16 13 18 14 11 12 10 11 9 13 11 8 9 15 11 14 20 16 17 11 18 21 22 13 18 25 21 16 13 12 14 16 14 11 6 6 12 14 12 17 3 4 4 3 5 3 15 10 10 4
8 6 11 8 15 15 11 8 6 7 11 10 9 11 10 7 8 8 13 19 16 14 17 20 20 24 23 25 26 22 16 14 10 15 25 21 17 12 11 11 9 5 12 6 15 6 3 3 2 5 3 12 7 3
5 6 12 3 20 15 18 12 3 6 15 12 8 7 6 5 4 7 8 13 17 22 23 26 20 18 14 13 13 16 13 10 10 11 11 10 8 8 7 10 12 7 9 5 3 4 7 2 2 3 3 2 5 18
Wind_Direction_500mb
256 260 261 263 270 277 282 278 282 292 299 302 310 315 312 297 285 294 276 284 294 275 278 271 302 310 305 285 296 337 1 249 306 243 235 280 315 267 276 306 98 173 175 232 168 213 271 345 23 1 165 118 76 64
251 254 254 258 262 266 275 267 279 289 295 298 300 307 302 277 269 266 278 274 269 277 264 277 266 250 248 270 314 270 276 308 10 45 5 349 324 325 340 288 3 52 156 229 292 218 257 8 348 56 179 141 99 94
250 253 255 260 257 256 254 265 278 283 291 290 296 297 287 259 256 261 255 279 311 298 304 276 275 273 248 228 243 223 337 345 33 21 5 286 278 351 300 282 357 355 126 139 338 334 310 320 8 33 84 84 99 93
242 253 256 248 247 247 254 270 274 278 280 284 291 283 267 248 248 253 259 264 302 306 283 306 293 268 252 214 224 238 249 300 301 300 280 196 235 278 258 265 281 266 172 195 209 217 292 344 93 193 115 70 48 44
237 241 239 238 239 242 256 265 267 270 271 280 278 261 245 249 251 259 257 237 264 255 295 301 297 248 219 217 209 217 223 245 267 296 268 233 248 258 285 282 273 276 285 150 249 23 105 166 167 123 119 109 95 354
235 237 233 234 236 249 254 260 261 261 260 268 269 239 238 243 230 237 292 214 222 253 284 291 303 268 204 182 197 213 228 235 241 246 246 239 248 263 256 271 266 269 345 351 273 280 278 240 121 113 111 87 39 16
228 225 223 225 241 254 252 250 252 250 248 252 234 221 236 219 218 193 228 202 192 192 261 295 281 245 191 189 196 206 221 225 235 249 232 241 264 234 238 252 272 283 290 284 240 242 239 83 91 124 129 53 14 334
221 216 215 232 237 244 243 238 238 232 229 217 221 219 212 227 260 253 268 217 189 206 257 270 267 233 195 173 187 213 215 231 239 227 246 257 259 223 249 246 266 270 276 287 215 179 128 129 129 122 89 353 21 13
213 216 226 232 228 231 230 242 213 204 204 187 187 188 220 255 216 212 195 177 180 208 280 260 281 335 234 233 227 191 210 214 232 207 219 213 209 222 224 238 258 286 278 296 199 171 55 112 154 158 119 22 3 349
212 223 214 220 219 226 206 187 190 173 177 164 158 176 221 199 193 248 111 150 179 214 234 258 258 277 283 222 287 189 196 221 240 220 203 198 250 253 244 239 247 247 265 252 300 79 89 78 133 118 78 19 18 349
208 205 203 206 215 186 183 177 169 156 155 160 166 200 150 161 141 179 199 198 199 227 222 240 227 240 268 165 271 231 267 249 251 249 156 233 261 237 253 246 244 225 179 182 144 100 105 143 130 111 87 25 10 336
188 188 200 187 170 174 169 164 154 158 166 172 144 132 149 177 208 232 212 208 194 238 191 220 212 228 233 145 261 285 273 254 255 142 174 266 281 345 253 173 137 161 157 156 134 135 139 119 77 91 77 49 340 330
176 167 162 163 166 166 164 161 165 162 153 146 126 166 188 164 156 224 211 208 211 284 42 273 81 349 121 167 55 329 255 242 297 221 229 236 76 89 118 40 120 129 153 142 136 139 140 126 169 63 88 6 347 354
153 153 157 156 160 161 164 169 170 158 150 169 159 223 211 198 228 210 234 193 206 238 257 298 137 182 251 179 147 225 245 281 272 232 256 46 87 59 71 147 147 148 154 164 156 156 161 174 84 52 98 17 20 358
148 150 154 157 163 170 175 173 170 166 153 206 198 207 216 236 260 290 208 297 76 113 40 10 294 245 227 243 203 257 256 260 257 292 48 96 125 97 203 165 153 154 152 143 162 167 152 167 185 123 106 37 28 3
144 146 161 164 161 159 158 160 161 130 259 239 235 239 285 262 92 345 350 17 52 65 99 53 24 303 246 227 197 212 222 235 256 266 6 112 121 76 176 157 148 140 138 149 154 141 157 158 129 106 120 120 42 0
145 148 147 150 147 145 144 136 133 205 234 247 234 254 305 337 334 57 90 79 131 117 127 118 166 245 301 257 256 5 317 253 300 312 103 71 350 140 151 142 141 124 139 129 138 142 131 131 135 108 144 143 115 8
129 142 140 139 139 137 135 144 196 222 239 247 275 254 248 233 291 354 90 209 162 175 154 186 148 242 258 286 54 310 300 311 6 18 72 99 141 127 132 143 133 139 130 129 128 137 154 175 166 119 105 128 127 91
137 135 134 135 133 131 144 186 215 273 247 261 279 276 24 345 310 288 288 235 114 135 137 116 251 231 218 278 295 294 283 304 334 344 338 243 181 145 140 133 134 133 127 125 123 109 99 101 90 117 111 159 130 126
136 136 142 140 132 127 141 156 201 265 274 317 298 335 322 289 267 292 255 209 173 171 193 206 220 214 223 262 279 331 297 308 334 360 73 125 127 128 145 138 146 128 119 121 122 113 98 31 84 105 81 103 94 90
143 148 146 145 97 22 219 165 195 270 321 313 305 308 325 294 262 233 236 234 200 206 227 239 263 292 290 268 279 253 275 250 357 110 136 128 131 126 141 127 137 134 133 146 121 128 131 118 93 96 106 65 130 62
136 136 137 127 86 114 210 185 225 305 290 311 329 342 280 280 254 243 221 221 227 239 289 289 297 294 280 239 275 297 326 230 351 140 120 139 144 155 140 142 132 141 138 150 140 132 131 97 110 74 130 103 64 82
124 134 132 129 182 210 160 173 224 207 248 321 319 303 253 276 221 295 221 202 192 93 274 314 320 322 344 335 315 321 283 269 205 192 144 144 166 135 137 135 159 123 127 126 123 97 111 131 102 36 68 46 218 147
136 137 177 172 204 215 170 206 199 219 220 236 198 274 317 336 317 309 30 63 23 357 345 347 335 320 312 306 306 263 23 129 144 139 135 133 135 131 129 120 138 148 131 135 146 131 138 127 122 66 82 66 86 127
243 194 170 217 217 213 220 193 184 172 236 223 268 319 24 339 282 23 341 18 340 339 332 340 1 358 3 33 89 155 147 142 143 145 157 156 139 134 124 119 119 137 150 152 130 138 114 111 76 63 88 87 72 117
251 201 187 190 173 233 246 288 233 248 181 200 205 193 177 254 306 279 353 8 338 337 330 336 342 35 60 319 77 111 101 103 111 156 154 166 165 161 142 141 137 139 118 122 140 131 131 108 127 106 85 94 87 114
265 182 190 201 173 158 241 251 278 285 266 223 164 180 173 177 225 105 55 11 358 349 342 4 101 72 102 137 119 50 77 122 139 114 115 112 119 124 130 141 127 130 133 134 131 130 135 142 120 103 79 346 132 121
257 237 166 179 184 192 227 202 218 257 257 351 344 293 1 63 68 36 13 348 339 340 42 116 95 119 128 111 81 85 105 117 117 116 122 117 114 134 135 141 157 136 145 142 141 130 120 142 108 106 129 123 104 130
218 190 201 207 204 208 221 234 243 6 340 18 14 70 63 76 42 353 335 334 324 37 147 112 129 119 105 82 87 113 128 138 131 125 118 122 122 132 157 104 154 145 165 182 178 148 142 130 140 154 111 112 131 136
217 206 232 228 205 68 26 157 173 214 32 70 103 113 97 96 40 5 26 97 132 122 136 101 99 113 138 142 118 114 96 82 118 162 148 154 147 145 146 145 171 187 149 108 107 127 132 122 144 29 281 197 217 223
229 211 232 7 16 61 110 103 91 97 84 61 71 117 119 123 64 38 105 115 126 94 108 96 87 100 144 136 128 122 102 94 114 120 139 132 148 137 178 105 138 147 168 194 205 170 66 31 325 123 287 277 202 331
240 291 307 99 165 150 222 2 45 63 82 96 83 94 83 70 45 19 108 115 84 105 105 95 99 101 106 110 115 121 126 136 145 100 117 137 131 126 54 148 142 133 189 141 181 186 251 300 317 355 304 57 235 216
185 298 319 277 136 142 161 158 249 101 93 97 92 118 89 72 45 48 157 157 80 89 64 94 109 121 117 116 95 102 104 103 122 133 132 150 143 164 145 114 128 142 85 115 176 189 205 335 336 114 78 276 109 66
Wind_Speed_850mb
60 58 54 47 46 47 44 38 34 34 37 39 42 42 35 20 17 14 7 7 13 16 50 38 28 27 24 19 3 12 8 1 4 2 3 5 4 5 5 10 2 11 5 8 6 6 10 15 8 7 13 14 15 19
60 58 52 47 45 40 49 39 33 37 39 44 41 39 31 17 16 15 9 11 18 23 33 32 32 33 29 22 19 7 9 8 8 3 5 5 5 7 9 6 9 1 7 5 1 8 6 19 25 6 2 18 14 15
60 61 61 57 50 44 40 35 37 38 42 42 39 33 23 16 16 20 19 15 18 24 43 27 32 9 19 28 15 12 1 1 8 7 6 3 5 5 3 7 11 6 8 4 4 9 24 5 7 21 16 18 25 15
62 58 62 53 48 40 35 38 41 43 39 37 33 25 16 16 16 18 19 11 9 13 11 7 1 7 11 19 26 20 17 11 8 8 4 4 3 10 5 7 7 15 10 9 8 12 31 12 0 15 9 9 15 14
68 65 59 52 47 43 41 46 44 43 34 31 25 19 16 13 14 15 17 16 14 11 9 30 37 23 13 23 23 21 21 16 13 9 3 4 9 12 13 7 12 20 7 4 7 12 5 28 24 4 13 10 4 6
71 61 57 50 46 48 50 49 44 35 27 21 19 17 13 10 7 4 4 10 18 16 10 7 20 16 37 25 25 25 20 16 19 7 8 10 34 26 4 6 14 23 37 16 7 6 4 12 12 12 10 7 8 16
67 61 52 47 49 48 46 38 30 27 21 24 21 21 16 14 11 10 8 6 17 8 7 12 13 11 39 29 30 24 22 18 21 21 13 20 34 10 3 10 25 44 44 29 14 14 7 9 10 11 7 5 8 10
65 59 52 53 52 45 36 29 25 24 24 22 20 15 15 11 17 16 13 20 12 6 7 6 9 11 28 13 13 27 23 21 14 16 11 17 16 16 8 19 42 38 28 23 12 7 6 12 10 10 6 4 11 15
59 55 52 51 40 35 31 31 29 30 23 21 15 17 11 15 6 14 6 14 12 11 7 8 6 3 5 10 16 18 19 6 15 15 12 14 7 9 17 32 33 10 11 6 6 7 2 10 8 9 6 8 6 14
60 59 47 38 35 29 27 37 34 29 22 24 23 7 6 11 11 4 6 7 9 11 12 11 21 9 6 9 6 6 12 7 5 12 13 7 9 36 36 37 27 17 14 7 14 12 7 3 10 6 6 6 8 10
50 40 34 32 30 35 44 39 35 37 35 25 13 6 9 14 6 4 8 10 13 8 14 15 30 16 15 4 3 6 5 5 5 7 10 6 6 21 30 35 35 32 10 4 8 14 8 15 11 6 9 10 9 8
35 31 27 33 49 46 41 39 39 36 24 14 13 14 10 8 7 7 6 10 11 8 16 22 19 21 8 4 3 1 4 4 9 11 3 5 4 14 7 10 13 26 17 9 14 19 13 16 8 6 6 4 8 16
31 42 49 44 44 42 41 43 42 30 27 19 5 9 7 8 1 9 10 7 6 4 6 12 7 5 5 4 5 4 7 9 9 3 5 3 12 14 14 10 27 20 16 23 14 14 14 13 2 7 5 5 14 16
55 48 37 42 41 41 41 39 43 32 24 8 11 1 8 9 10 10 11 9 15 12 15 10 7 7 5 5 8 5 8 7 5 5 3 8 20 8 4 7 22 23 22 16 14 17 14 11 3 4 3 11 14 17
43 42 40 38 37 36 36 37 45 36 8 10 10 6 14 27 26 9 3 18 21 10 5 3 2 5 5 6 7 5 5 5 5 5 3 7 9 10 13 22 23 22 16 13 16 13 14 10 3 9 4 9 12 15
41 37 30 34 35 36 38 45 41 10 4 6 10 11 16 11 4 8 14 12 6 9 7 7 6 4 7 6 9 9 4 6 5 3 9 7 0 4 15 26 22 15 16 12 10 18 13 10 6 6 3 6 6 11
37 33 39 39 41 43 47 36 12 6 7 8 11 16 19 16 18 8 8 5 9 7 4 6 2 4 12 6 4 1 4 6 12 10 5 6 11 6 23 22 17 11 12 16 16 16 13 12 4 5 2 8 8 9
29 40 43 45 51 53 36 23 7 9 11 17 15 6 12 10 10 6 9 9 8 4 6 3 6 5 5 6 1 1 37 41 7 7 3 4 2 21 28 17 15 18 16 16 17 17 15 9 4 5 8 14 11 1
44 52 56 54 46 23 10 9 5 7 12 10 10 16 8 8 8 9 7 10 7 10 10 3 5 5 3 3 20 31 36 25 15 17 14 11 13 27 23 17 19 19 17 18 18 19 15 4 5 8 9 6 14 9
44 48 47 39 27 9 7 7 7 9 7 9 14 8 8 6 6 6 12 4 13 9 8 7 9 7 10 20 14 12 11 12 16 11 6 25 30 20 21 19 18 23 23 22 20 17 15 13 19 16 14 13 10 18
32 36 33 21 7 2 1 7 7 5 10 9 12 13 9 3 10 14 20 17 26 15 10 16 13 14 29 21 19 20 16 8 6 4 20 18 20 22 18 19 19 22 18 21 21 16 7 11 18 10 13 18 9 5
30 33 17 9 4 2 1 5 2 3 6 16 15 13 9 8 13 19 21 23 22 24 8 25 17 19 15 9 7 7 7 3 8 12 15 19 21 18 24 18 24 23 20 17 18 11 12 12 8 14 4 11 12 6
27 21 10 4 2 2 2 5 3 5 2 5 8 10 7 5 4 12 11 22 10 4 4 6 7 9 9 6 7 20 16 13 12 18 16 20 21 19 20 18 17 19 23 20 13 10 12 11 6 15 6 6 6 10
15 4 4 6 6 4 9 8 7 4 5 5 4 6 6 8 13 7 5 6 10 13 14 16 18 17 19 21 15 5 3 9 13 18 23 29 30 23 21 16 13 18 16 17 10 13 10 5 9 5 9 16 13 14
2 4 7 6 10 8 7 8 11 8 4 2 2 3 7 10 4 1 2 8 16 15 19 15 19 13 16 7 5 2 7 16 18 21 25 26 30 30 27 22 17 17 24 16 14 10 15 15 9 7 7 8 21 19
5 10 11 11 9 5 2 3 2 4 9 7 7 5 4 3 3 5 4 9 11 13 18 14 13 10 3 4 10 17 14 16 19 20 23 30 30 22 27 21 22 15 15 10 12 13 11 10 10 9 18 13 14 20
5 6 9 7 5 5 5 7 8 7 7 3 8 11 7 3 2 4 3 15 18 18 15 9 9 15 20 25 13 18 21 23 28 25 28 24 20 17 22 22 20 15 12 14 14 10 13 8 6 8 8 6 11 12
7 3 3 14 8 12 4 5 5 4 3 4 4 2 3 4 4 6 9 15 14 13 5 19 19 17 22 24 19 19 21 31 33 30 27 22 20 19 20 20 17 13 14 13 11 10 7 9 9 8 10 11 13 8
6 9 8 10 10 8 8 4 2 5 6 4 4 4 4 7 7 9 13 13 6 3 22 17 16 11 11 14 15 18 18 25 20 20 24 24 19 15 9 12 25 13 8 14 10 11 7 7 10 6 6 7 5 6
9 17 14 14 10 3 4 10 9 4 7 7 6 9 8 8 9 9 6 9 15 19 10 11 14 13 17 12 16 20 19 19 15 15 17 18 16 16 14 13 12 14 11 17 18 16 12 10 9 4 4 7 2 4
7 12 7 12 16 13 18 14 11 12 10 11 9 13 11 8 9 15 11 14 20 16 17 11 18 21 22 13 18 25 21 16 13 12 14 16 14 11 6 6 12 14 12 17 3 4 4 3 5 3 15 10 10 4
8 6 11 8 15 15 11 8 6 7 11 10 9 11 10 7 8 8 13 19 16 14 17 20 20 24 23 25 26 22 16 14 10 15 25 21 17 12 11 11 9 5 12 6 15 6 3 3 2 5 3 12 7 3
5 6 12 3 20 15 18 12 3 6 15 12 8 7 6 5 4 7 8 13 17 22 23 26 20 18 14 13 13 16 13 10 10 11 11 10 8 8 7 10 12 7 9 5 3 4 7 2 2 3 3 2 5 18
Wind_Direction_850mb
256 260 261 263 270 277 282 278 282 292 299 302 310 315 312 297 285 294 276 284 294 275 278 271 302 310 305 285 296 337 1 249 306 243 235 280 315 267 276 306 98 173 175 232 168 213 271 345 23 1 165 118 76 64
251 254 254 258 262 266 275 267 279 289 295 298 300 307 302 277 269 266 278 274 269 277 264 277 266 250 248 270 314 270 276 308 10 45 5 349 324 325 340 288 3 52 156 229 292 218 257 8 348 56 179 141 99 94
250 253 255 260 257 256 254 265 278 283 291 290 296 297 287 259 256 261 255 279 311 298 304 276 275 273 248 228 243 223 337 345 33 21 5 286 278 351 300 282 357 355 126 139 338 334 310 320 8 33 84 84 99 93
242 253 256 248 247 247 254 270 274 278 280 284 291 283 267 248 248 253 259 264 302 306 283 306 293 268 252 214 224 238 249 300 301 300 280 196 235 278 258 265 281 266 172 195 209 217 292 344 93 193 115 70 48 44
237 241 239 238 239 242 256 265 267 270 271 280 278 261 245 249 251 259 257 237 264 255 295 301 297 248 219 217 209 217 223 245 267 296 268 233 248 258 285 282 273 276 285 150 249 23 105 166 167 123 119 109 95 354
235 237 233 234 236 249 254 260 261 261 260 268 269 239 238 243 230 237 292 214 222 253 284 291 303 268 204 182 197 213 228 235 241 246 246 239 248 263 256 271 266 269 345 351 273 280 278 240 121 113 111 87 39 16
228 225 223 225 241 254 252 250 252 250 248 252 234 221 236 219 218 193 228 202 192 192 261 295 281 245 191 189 196 206 221 225 235 249 232 241 264 234 238 252 272 283 290 284 240 242 239 83 91 124 129 53 14 334
221 216 215 232 237 244 243 238 238 232 229 217 221 219 212 227 260 253 268 217 189 206 257 270 267 233 195 173 187 213 215 231 239 227 246 257 259 223 249 246 266 270 276 287 215 179 128 129 129 122 89 353 21 13
213 216 226 232 228 231 230 242 213 204 204 187 187 188 220 255 216 212 195 177 180 208 280 260 281 335 234 233 227 191 210 214 232 207 219 213 209 222 224 238 258 286 278 296 199 171 55 112 154 158 119 22 3 349
212 223 214 220 219 226 206 187 190 173 177 164 158 176 221 199 193 248 111 150 179 214 234 258 258 277 283 222 287 189 196 221 240 220 203 198 250 253 244 239 247 247 265 252 300 79 89 78 133 118 78 19 18 349
208 205 203 206 215 186 183 177 169 156 155 160 166 200 150 161 141 179 199 198 199 227 222 240 227 240 268 165 271 231 267 249 251 249 156 233 261 237 253 246 244 225 179 182 144 100 105 143 130 111 87 25 10 336
188 188 200 187 170 174 169 164 154 158 166 172 144 132 149 177 208 232 212 208 194 238 191 220 212 228 233 145 261 285 273 254 255 142 174 266 281 345 253 173 137 161 157 156 134 135 139 119 77 91 77 49 340 330
176 167 162 163 166 166 164 161 165 162 153 146 126 166 188 164 156 224 211 208 211 284 42 273 81 349 121 167 55 329 255 242 297 221 229 236 76 89 118 40 120 129 153 142 136 139 140 126 169 63 88 6 347 354
153 153 157 156 160 161 164 169 170 158 150 169 159 223 211 198 228 210 234 193 206 238 257 298 137 182 251 179 147 225 245 281 272 232 256 46 87 59 71 147 147 148 154 164 156 156 161 174 84 52 98 17 20 358
148 150 154 157 163 170 175 173 170 166 153 206 198 207 216 236 260 290 208 297 76 113 40 10 294 245 227 243 203 257 256 260 257 292 48 96 125 97 203 165 153 154 152 143 162 167 152 167 185 123 106 37 28 3
144 146 161 164 161 159 158 160 161 130 259 239 235 239 285 262 92 345 350 17 52 65 99 53 24 303 246 227 197 212 222 235 256 266 6 112 121 76 176 157 148 140 138 149 154 141 157 158 129 106 120 120 42 0
145 148 147 150 147 145 144 136 133 205 234 247 234 254 305 337 334 57 90 79 131 117 127 118 166 245 301 257 256 5 317 253 300 312 103 71 350 140 151 142 141 124 139 129 138 142 131 131 135 108 144 143 115 8
129 142 140 139 139 137 135 144 196 222 239 247 275 254 248 233 291 354 90 209 162 175 154 186 148 242 258 286 54 310 300 311 6 18 72 99 141 127 132 143 133 139 130 129 128 137 154 175 166 119 105 128 127 91
137 135 134 135 133 131 144 186 215 273 247 261 279 276 24 345 310 288 288 235 114 135 137 116 251 231 218 278 295 294 283 304 334 344 338 243 181 145 140 133 134 133 127 125 123 109 99 101 90 117 111 159 130 126
136 136 142 140 132 127 141 156 201 265 274 317 298 335 322 289 267 292 255 209 173 171 193 206 220 214 223 262 279 331 297 308 334 360 73 125 127 128 145 138 146 128 119 121 122 113 98 31 84 105 81 103 94 90
143 148 146 145 97 22 219 165 195 270 321 313 305 308 325 294 262 233 236 234 200 206 227 239 263 292 290 268 279 253 275 250 357 110 136 128 131 126 141 127 137 134 133 146 121 128 131 118 93 96 106 65 130 62
136 136 137 127 86 114 210 185 225 305 290 311 329 342 280 280 254 243 221 221 227 239 289 289 297 294 280 239 275 297 326 230 351 140 120 139 144 155 140 142 132 141 138 150 140 132 131 97 110 74 130 103 64 82
124 134 132 129 182 210 160 173 224 207 248 321 319 303 253 276 221 295 221 202 192 93 274 314 320 322 344 335 315 321 283 269 205 192 144 144 166 135 137 135 159 123 127 126 123 97 111 131 102 36 68 46 218 147
136 137 177 172 204 215 170 206 199 219 220 236 198 274 317 336 317 309 30 63 23 357 345 347 335 320 312 306 306 263 23 129 144 139 135 133 135 131 129 120 138 148 131 135 146 131 138 127 122 66 82 66 86 127
243 194 170 217 217 213 220 193 184 172 236 223 268 319 24 339 282 23 341 18 340 339 332 340 1 358 3 33 89 155 147 142 143 145 157 156 139 134 124 119 119 137 150 152 130 138 114 111 76 63 88 87 72 117
251 201 187 190 173 233 246 288 233 248 181 200 205 193 177 254 306 279 353 8 338 337 330 336 342 35 60 319 77 111 101 103 111 156 154 166 165 161 142 141 137 139 118 122 140 131 131 108 127 106 85 94 87 114
265 182 190 201 173 158 241 251 278 285 266 223 164 180 173 177 225 105 55 11 358 349 342 4 101 72 102 137 119 50 77 122 139 114 115 112 119 124 130 141 127 130 133 134 131 130 135 142 120 103 79 346 132 121
257 237 166 179 184 192 227 202 218 257 257 351 344 293 1 63 68 36 13 348 339 340 42 116 95 119 128 111 81 85 105 117 117 116 122 117 114 134 135 141 157 136 145 142 141 130 120 142 108 106 129 123 104 130
218 190 201 207 204 208 221 234 243 6 340 18 14 70 63 76 42 353 335 334 324 37 147 112 129 119 105 82 87 113 128 138 131 125 118 122 122 132 157 104 154 145 165 182 178 148 142 130 140 154 111 112 131 136
217 206 232 228 205 68 26 157 173 214 32 70 103 113 97 96 40 5 26 97 132 122 136 101 99 113 138 142 118 114 96 82 118 162 148 154 147 145 146 145 171 187 149 108 107 127 132 122 144 29 281 197 217 223
229 211 232 7 16 61 110 103 91 97 84 61 71 117 119 123 64 38 105 115 126 94 108 96 87 100 144 136 128 122 102 94 114 120 139 132 148 137 178 105 138 147 168 194 205 170 66 31 325 123 287 277 202 331
240 291 307 99 165 150 222 2 45 63 82 96 83 94 83 70 45 19 108 115 84 105 105 95 99 101 106 110 115 121 126 136 145 100 117 137 131 126 54 148 142 133 189 141 181 186 251 300 317 355 304 57 235 216
185 298 319 277 136 142 161 158 249 101 93 97 92 118 89 72 45 48 157 157 80 89 64 94 109 121 117 116 95 102 104 103 122 133 132 150 143 164 145 114 128 142 85 115 176 189 205 335 336 114 78 276 109 66